Location: Unspecified
(0.0000°N, 0.0000°E)
Time: 13:25:33
(UTC+00:00)

STARLINK-32327 - Visible Passes

Search period start: 20 July 2025 00:00
Search period end: 30 July 2025 00:00
Orbit: 482 x 484 km, 43.0° (Epoch: 20 July)

Date Brightness Start Highest point End Pass type
(mag) Time Alt. Az. Time Alt. Az. Time Alt. Az.
20 Jul 5.6 04:56:20 10° S 04:59:03 18° SE 05:01:44 10° E visible
21 Jul 5.5 04:30:17 16° SSE 04:31:17 18° SE 04:33:54 10° E visible
22 Jul 5.9 04:04:20 16° ESE 04:04:20 16° ESE 04:06:01 10° E visible
22 Jul 4.6 05:39:01 10° WSW 05:42:18 28° NW 05:45:34 10° NNE visible
23 Jul 4.5 05:12:35 19° W 05:14:29 29° NW 05:17:47 10° NNE visible
24 Jul 4.3 04:46:31 31° NW 04:46:37 31° NW 04:49:58 10° NNE visible
25 Jul 5.3 04:20:21 22° N 04:20:21 22° N 04:22:07 10° NNE visible
26 Jul 6.4 03:54:06 11° NNE 03:54:06 11° NNE 03:54:14 10° NNE visible
